Weather in Boston

United States     42˚21′21″N   71˚04′25″W
temp.,
°C
wind,
m/s
gust,
m/s
humid.,
%
clouds,
%
prec.,
mm/h
press.,
hPa
HPBL,
m
28 november, sat
sat2801:00+10˚nw146197 0.1 1013466
04:00+9˚w237023 0.0 1013149
07:00+8˚wnw246820 0.0 1014165
10:00+10˚wsw24590 0.0 1013493
13:00+11˚w465120 0.0 10121181
16:00+10˚wnw476297 0.1 1013923
19:00+8˚wnw596249 0.1 1015895
22:00+7˚wnw48650 0.0 1016638
29 november, sun
sun2901:00+5˚w48640 0.0 1017431
04:00+5˚wnw49650 0.0 1018426
07:00+5˚w49640 0.0 1019432
10:00+7˚wsw46540 0.0 1020440
13:00+10˚sw36480 0.0 1019639
16:00+10˚ssw36540 0.0 1019384
19:00+8˚sw37610 0.0 1020317
22:00+7˚ssw376065 0.0 1020252
30 november, mon
mon3001:00+7˚sw4106766 0.0 1020366
04:00+6˚s257467 0.0 1019177
07:00+7˚s239183 0.0 101995
10:00+10˚ese3681100 0.0 1018244
13:00+12˚se51389100 0.4 1014601
16:00+12˚se51495100 3.1 10111083
19:00+14˚se102289100 7.8 10061368
22:00+16˚sse102186100 4.3 10041038
1 december, tue
tue101:00+15˚sse71691100 4.8 1003640
04:00+14˚sse41198100 0.3 1002388
07:00+15˚se61497100 5.4 1001650
10:00+16˚sse61493100 3.0 999645
13:00+15˚ssw61374100 3.7 998830
16:00+12˚s61266100 0.0 1000999
19:00+11˚s6146851 0.0 10021298
22:00+9˚ssw7136649 0.4 10041455
2 december, wed
wed201:00+7˚ssw7146224 0.4 10061347
04:00+6˚sw714620 0.0 10081317
07:00+5˚sw713610 0.0 10111305
10:00+7˚sw712553 0.0 10121418
13:00+8˚sw7125214 0.0 10121315
16:00+6˚sw611550 0.0 10131065
19:00+5˚wsw612590 0.0 1015926
22:00+5˚sw612640 0.0 1015816